Location: Chmeli�t?
(49.8978°N, 15.0526°E)
Time: 07:12:56
(UTC+00:00)

Cosmos 2074 Rocket - Pass Details

Date: 02 October 2020
Orbit: 967 x 987 km, 82.9° (Epoch: 30 October)

Event Time Altitude Azimuth Distance (km) Brightness Sun altitude
Rises 23:04:13 0° 343° (NNW) 3,695 7.7 -44.0°
Reaches altitude 10° 23:07:01 10° 334° (NNW) 2,739 6.8 -44.0°
Enters shadow 23:08:20 16° 326° (NW) 2,336 6.3 -44.0°
